Location: Unspecified
(49.1167°N, 0.0000°E)
Time: 06:07:10
(UTC+00:00)

ALOS DEB - Visible Passes

Search period start: 04 April 2026 00:00
Search period end: 14 April 2026 00:00
Orbit: 613 x 616 km, 98.0° (Epoch: 28 March)

Date Brightness Start Highest point End Pass type
(mag) Time Alt. Az. Time Alt. Az. Time Alt. Az.
4 Apr ? 03:46:37 10° NNE 03:50:52 56° E 03:55:05 10° S visible
5 Apr ? 04:02:02 10° NNE 04:06:22 81° ESE 04:10:39 10° SSW visible
6 Apr ? 02:43:08 10° ENE 02:45:19 14° E 02:47:29 10° ESE visible
6 Apr ? 04:17:29 10° N 04:21:48 72° WNW 04:26:05 10° SSW visible
7 Apr ? 02:57:50 10° NE 03:00:56 19° E 03:04:00 10° SE visible
7 Apr ? 04:33:01 10° N 04:37:12 51° WNW 04:41:21 10° SW visible
8 Apr ? 03:12:51 10° NE 03:16:30 26° E 03:20:07 10° SSE visible
8 Apr ? 04:48:35 10° N 04:52:33 36° WNW 04:56:30 10° SW visible
9 Apr ? 03:28:00 10° NNE 03:32:00 36° E 03:35:59 10° SSE visible
10 Apr ? 03:43:15 10° NNE 03:47:29 51° E 03:51:40 10° S visible
11 Apr ? 03:58:34 10° NNE 04:02:54 74° ESE 04:07:12 10° S visible
12 Apr ? 02:39:55 10° ENE 02:41:45 12° E 02:43:34 10° ESE visible
12 Apr ? 04:13:57 10° NNE 04:18:17 79° WNW 04:22:34 10° SSW visible
13 Apr ? 02:54:24 10° NE 02:57:18 17° E 03:00:10 10° SE visible
13 Apr ? 04:29:24 10° N 04:33:37 56° WNW 04:37:49 10° SSW visible
